COSMOS 839 DEB

基本信息
目录编号:
10442
目录名称:
COSMOS 839 DEB
国际标识:
1976-067T
轨道中心:
EARTH
物体状态:
在轨
发射日期:
1976-07-08 UTC
轨道信息
数据来源: 国际轨道数据
星历时间: 2026-09-14T11:59:08+0800
半长轴: 7985.134km
偏心率: 0.0648759
轨道倾角: 66.009°
近地点辐角: 57.154°
升交点赤经: 303.416°
平近点角: 339.023°
近地点: 1088.954km
远地点: 2125.04km
周期: 118.354分钟
每日圈数: 12.166888
详细信息
发射场:
PKMTR
轨道高度:
LEO
数据来源:
AOE Integration Group
参考系:
TEME
时间系统:
UTC
历元类型:
SGP4
2D轨道图
3D轨道图
轨道高度分析图
轨道倾角分析图
轨道综合分析图
查看轨道综合分析图